Regional Weather Roundup
Issued by NWS

Home | Current Version | Previous Version | Text Only | Print | Product List | Glossary On
Versions: 1 2 3 4 5 6 7 8 9 10 11 12 13 14 15 16 17 18 19 20 21 22 23 24 25 26 27 28 29 30 31 32 33 34 35 36 37 38 39 40 41 42 43 44 45 46 47 48 49 50
000
ASUS42 KFFC 301710
RWRGA
WEATHER ROUNDUP FOR GEORGIA
NATIONAL WEATHER SERVICE PEACHTREE CITY GA
100 PM EDT FRI SEP 30 2016

NOTE: "FAIR" INDICATES FEW OR NO CLOUDS BELOW 12,000 FEET WITH NO
SIGNIFICANT WEATHER AND/OR OBSTRUCTIONS TO VISIBILITY.

* = USE WITH CAUTION. THE STATIONS MARKED WITH AN ASTERISK MAY NOT
REPORT WEATHER SUCH AS PRECIPITATION, FOG, OR THUNDER AND ARE NOT
QUALITY CONTROLLED BY NWS.

THE REMARK "TC" DENOTES TEMPERATURE READING IN DEGREES CELSIUS.

GAZ001>058-301800-
NORTH GEORGIA

CITY           SKY/WX    TMP DP  RH WIND       PRES   REMARKS
ATLANTA        MOSUNNY   70  49  47 VRB3      30.07S
ATHENS         SUNNY     75  48  38 MISG      30.03F
CHAMBLEE       SUNNY     69  47  45 W9        30.06S
PEACHTREE CITY SUNNY     68  49  50 VRB3      30.08S
ROME           MOSUNNY   69  46  43 VRB6      30.07F
WEST ATLANTA   MOSUNNY   68  48  48 W12       30.07S
GAINESVILLE    SUNNY     67  46  47 VRB3      30.06S
CARTERSVILLE   SUNNY     69  47  45 VRB3      30.08S


CITY           SKY/WX    TMP DP  RH WIND       PRES   REMARKS
DALTON*        SUNNY     66  50  55 CALM      30.07F
LAWRENCEVILLE* SUNNY     70  46  43 W9        30.05R
MARIETTA       MOSUNNY   68  48  48 NW13      30.06F
KENNESAW*      MOSUNNY   66  46  48 NW7       30.07S
CANTON*        SUNNY     68  41  37 NW8       30.07S
BLAIRSVILLE*     N/A    N/A N/A N/A MISG      30.06F
$$

GAZ059>098-102>109-301800-
CENTRAL GEORGIA

CITY           SKY/WX    TMP DP  RH WIND       PRES   REMARKS
AUGUSTA-BUSH   SUNNY     79  49  34 SW10      30.01F
AUGUSTA-DANIEL SUNNY     77  45  32 S8        30.03F
COLUMBUS       SUNNY     73  47  39 W8        30.07F
MACON          SUNNY     77  47  34 SW9       30.05F
ROBINS AFB     SUNNY     75  48  37 S6        30.04F


CITY           SKY/WX    TMP DP  RH WIND       PRES   REMARKS
LAGRANGE*      MOSUNNY   72  53  50 NW10      30.08F
MILLEDGEVILLE* SUNNY     77  54  44 W3        30.04F
$$

GAZ099>101-110>166-301800-
SOUTH GEORGIA

CITY           SKY/WX    TMP DP  RH WIND       PRES   REMARKS
SAVANNAH       MOSUNNY   84  56  38 W5        30.03F
VALDOSTA       SUNNY     81  50  33 CALM      30.05F
ALMA           SUNNY     80  54  40 MISG      30.05F
ST SIMONS      SUNNY     82  60  47 W5        30.03F
FT STEWART     SUNNY     82  54  38 VRB2      30.01F
ALBANY         SUNNY     78  50  37 W5        30.08F
HUNTER AFB     SUNNY     84  67  56 VRB7      30.00F
MOODY AFB      SUNNY     80  50  35 CALM      30.04F
BRUNSWICK      SUNNY     84  63  48 SW5       30.04F


CITY           SKY/WX    TMP DP  RH WIND       PRES   REMARKS
BAINBRIDGE*    SUNNY     79  54  41 CALM      30.07F
MOULTRIE*      SUNNY     77  52  41 SW3       30.07F
VIDALIA*       SUNNY     81  55  41 SW5       30.05F
WAYCROSS*      SUNNY     85  55  36 SE5       30.04F
DOUGLAS*       SUNNY     79  46  31 W6        30.07F
$$



USA.gov is the U.S. government's official web portal to all federal, state and local government web resources and services.